User: anonymous   Login
Location: Simi Valley
(34.2690°N, 118.7810°W)
Time: 06:07:21
(UTC-08:00)
Language:

Lacrosse 5 rocket - Orbit

View from above orbital plane
View from above orbital plane
View from above satellite
View from above satellite

Ground track
Ground track

The orbit data is extracted from the following two-line orbital elements,

1 28647U 05016B   17323.25693236 0.00000600  00000-0  34785-4 0    01
2 28647  56.9975 105.8322 0126004 244.2867 115.7132 15.05186722    04
Epoch (UTC): 19 November 2017 06:09:58
Eccentricity: 0.0126004
inclination: 56.9975°
perigee height: 463 km
apogee height: 638 km
right ascension of ascending node: 105.8322°
argument of perigee: 244.2867°
revolutions per day: 15.05186722
mean anomaly at epoch: 115.7132°
orbit number at epoch: 0

The dashed part of the orbit path shows where the satellite is in the earth's shadow,  

DLR